Home   Weather   Soltau   Past weeks

Flag for Germany Past Weather in Soltau, Lower Saxony, Germany — Yesterday and Last 2 Weeks

Now
43 °F

Rain. Passing clouds.


Feels Like: 40 °F
Forecast: 34 / 47 °F
Wind: 5 mph from Southeast

Location: Fassberg

Current Time: Apr 25, 2017 at 1:30:40 am

Latest Report: Apr 25, 2017 at 12:25 am


Visibility: 4 mi

Pressure: 29.68 "Hg

Humidity: 93%

Dew Point: 41 °F

Location of SoltauLocation

Past Weather in Soltau — Graph

°F

Soltau Temperature Yesterday

Maximum temperature yesterday: 54 °F (at 1:20 pm)
Minimum temperature yesterday: 32 °F (at 4:20 am)
Average temperature yesterday: 43 °F

High & Low Weather Summary for the Past Weeks

 TemperatureHumidityPressure
High57 °F (Apr 21, 2:20 pm)100% (Apr 17, 3:20 am)30.63 "Hg (Apr 17, 3:20 am)
Low21 °F (Apr 20, 5:20 am)32% (Apr 20, 4:20 pm)29.71 "Hg (Apr 24, 11:20 pm)
Average43 °F75%30.08 "Hg
* Reported Apr 9 11:20 pm — Apr 24 11:20 pm, Soltau, Weather by CustomWeather, © 2017

Note: Actual official high and low records may vary slightly from our data, if they occured in-between our weather recording intervals... More about our weather records

Advertising

Soltau Weather History for the Previous 24 Hours

Scroll right to see more
 ConditionsComfort  
Time TempWeatherWind HumidityBarometerVisibility
11:20 pm
Mon, Apr 24
43 °FLight rain. Passing clouds.1 mph93%29.71 "Hg5 mi
10:20 pm45 °FPassing clouds.5 mph87%29.74 "HgN/A
9:20 pm45 °FPartly cloudy.3 mph93%29.74 "HgN/A
8:26 pm46 °FBroken clouds.9 mph87%29.77 "Hg5 mi
7:58 pm46 °FLight rain. Broken clouds.12 mph87%29.77 "Hg5 mi
7:31 pm50 °FLight rain. Broken clouds.14 mph71%29.77 "Hg4 mi
6:20 pm50 °FBroken clouds.17 mph71%29.77 "HgN/A
5:20 pm50 °FPartly sunny.22 mph67%29.80 "HgN/A
4:20 pm52 °FBroken clouds.13 mph58%29.80 "HgN/A
3:20 pm54 °FPartly sunny.16 mph51%29.83 "HgN/A
2:20 pm54 °FPartly sunny.15 mph51%29.86 "HgN/A
1:20 pm54 °FPartly sunny.24 mph47%29.86 "HgN/A
12:20 pm52 °FBroken clouds.26 mph50%29.89 "HgN/A
11:20 am50 °FPartly sunny.20 mph54%29.92 "HgN/A
10:20 am46 °FBroken clouds.20 mph57%29.92 "HgN/A
9:20 am41 °FPartly sunny.13 mph70%29.98 "HgN/A
8:20 am37 °FBroken clouds.10 mph81%30.01 "HgN/A
7:20 am36 °FPartly sunny.12 mph81%30.01 "HgN/A
6:20 am34 °FScattered clouds.9 mph87%30.04 "HgN/A
5:20 am32 °FPassing clouds.7 mph93%30.07 "HgN/A
4:20 am32 °FPassing clouds.7 mph93%30.07 "HgN/A
3:20 am34 °FPassing clouds.7 mph87%30.09 "HgN/A
2:20 am34 °FPassing clouds.7 mph87%30.12 "HgN/A
1:20 am36 °FPassing clouds.6 mph87%30.15 "HgN/A
Weather by CustomWeather, © 2017

See weather overviewHow to use our weather pages